Погода в Мстёре

Россия / Владимирская область     56°22′31″N   41°55′34″E
темп.,
°C
ветер,
м/с
пор.,
м/с
влажн.,
%
обл.,
%
осадки,
мм/ч
давл.,
гПа
погр.,
м
5 августа, чт
чт500:00+14ссв24656 0.0 101668
03:00+13з1162100 0.0 101719
06:00+15ссв1259100 0.0 101877
09:00+18св124721 0.0 1018303
12:00+23ссв12369 0.0 10181700
15:00+23всв2240100 0.0 10171297
18:00+21в3649100 0.0 1016332
21:00+18юв2753100 0.0 1016197
6 августа, пт
пт600:00+15ссв2383100 0.8 101654
03:00+14в397745 1.0 1015214
06:00+15юв41274100 0.3 1015343
09:00+17ююв31083100 0.9 1014419
12:00+22ю2561100 0.1 1014899
15:00+18юв2587100 1.0 1014221
18:00+17юв3794100 1.3 1014267
21:00+16в3797100 2.7 1014188
7 августа, сб
сб700:00+16в41096100 0.9 1013268
03:00+15в4119576 1.4 1013370
06:00+15в389689 0.8 1013279
09:00+19вюв358593 2.2 1013405
12:00+19вюв3787100 0.3 1013331
15:00+27в244859 0.4 1012725
18:00+25ю1157100 0.0 101250
21:00+21в41064100 0.0 1012196
8 августа, вс
вс800:00+21юв41262100 0.0 1012343
03:00+20юв3116165 0.0 1013289
06:00+19юв3865100 0.0 1013200
09:00+25ююв344676 0.0 1012395
12:00+29ююз343397 0.0 10131229
15:00+30зюз463424 0.0 10131780
18:00+26з366099 0.0 1014501
21:00+21з2784100 0.3 1016233
9 августа, пн
пн900:00+18сз119379 0.3 101711
03:00+16зюз11914 0.3 101811
06:00+16з13871 0.0 101890
09:00+22з23640 0.0 1018615
12:00+26з244527 0.0 10181533
15:00+27з343982 0.0 10181833
18:00+25зсз2354100 0.0 1017113
21:00+20сз126696 0.0 101811